Regional Weather Roundup
Issued by NWS

Home | Current Version | Previous Version | Graphics & Text | Print | Product List | Glossary Off
Versions: 1 2 3 4 5 6 7 8 9 10 11 12 13 14 15 16 17 18 19 20 21 22 23 24 25 26 27 28 29 30 31 32 33 34 35 36 37 38 39 40 41 42 43 44 45 46 47 48 49 50

406
ASUS43 KLSX 251910
RWRMO

WEATHER SUMMARY FOR MISSOURI
NATIONAL WEATHER SERVICE SPRINGFIELD MO
200 PM CDT THU AUG 25 2016

NOTE: "FAIR" INDICATES FEW OR NO CLOUDS BELOW 12,000 FEET WITH NO
       SIGNIFICANT WEATHER AND/OR OBSTRUCTIONS TO VISIBILITY.
       CURRENT SKY AND/OR WEATHER CONDITIONS ARE NOT AVAILABLE FOR
       CHILLICOTHE AND FARMINGTON.

MOZ001>031-035>038-043-044-053-054-252000-
...NORTHERN AND WESTERN MISSOURI...

CITY           SKY/WX    TMP DP  RH WIND       PRES   REMARKS
KANSAS CTY INT PTSUNNY   80  68  66 W3        30.07S
KANSAS C DTWN  PTSUNNY   83  68  60 CALM      30.05F
LEE`S SUMMIT   PTSUNNY   82  70  66 SW8       30.07F
ST JOSEPH      CLOUDY    77  68  73 N9        30.09S
CHILLICOTHE      N/A     77  70  79 NE9       30.08
KIRKSVILLE     PTSUNNY   72  69  90 N10       30.10F

$$
MOZ066>068-077>081-088>096-101>105-252000-
...SOUTHWEST MISSOURI...

CITY           SKY/WX    TMP DP  RH WIND       PRES   REMARKS
SPRINGFIELD    MOSUNNY   89  71  55 SW15      30.09F HX  95
JOPLIN         MOSUNNY   91  71  51 W10       30.06F HX  97
BRANSON        MOSUNNY   88  70  55 W5        30.13F HX  92

$$
MOZ032>034-039>042-045>050-055>058-069>072-252000-
...CENTRAL MISSOURI...

CITY           SKY/WX    TMP DP  RH WIND       PRES   REMARKS
COLUMBIA       PTSUNNY   86  72  62 W7        30.07S HX  92
JEFFERSON CITY SUNNY     88  71  57 VRB3      30.05F HX  94
ROLLA          MOSUNNY   86  71  60 SW7       30.08F HX  91
SEDALIA        PTSUNNY   87  71  58 SW8       30.07F HX  93
WHITEMAN AFB   PTSUNNY   83  74  72 W6        30.05F HX  90
OSAGE BEACH    SUNNY     89  74  60 W6        30.07F HX  98

$$
MOZ051-052-059>065-252000-
...EAST CENTRAL MISSOURI...

CITY           SKY/WX    TMP DP  RH WIND       PRES   REMARKS
ST LOUIS INTL  PTSUNNY   92  71  50 SW8       30.06F HX  98
SPIRIT OF STL  PTSUNNY   89  72  56 SW9       30.04F HX  96
ST CHARLES     MOSUNNY   89  72  56 W6        30.04F HX  96

$$
MOZ072>076-082>087-097>100-106>115-252000-
...SOUTH CENTRAL AND SOUTHEAST MISSOURI...

CITY           SKY/WX    TMP DP  RH WIND       PRES   REMARKS
CAPE GIRARDEAU SUNNY     90  72  55 W7        30.09F HX  97
FARMINGTON     MOSUNNY   89  71  55 VRB6      30.10F HX  95
POPLAR BLUFF   MOSUNNY   91  71  51 W7        30.09S HX  97
WEST PLAINS    PTSUNNY   89  71  55 W5        30.14F HX  95

$$




USA.gov is the U.S. government's official web portal to all federal, state and local government web resources and services.